本田-ムルコス-パイドゥシャーコヴァー彗星

45P/Honda-Mrkos-Pajdusakova (2022)

English version
Home page
Updated on November 3, 2020

---------------------------------------------------------------------

・ プロフィール

・ 軌道要素

Epoch 2022 Apr. 11.0 TT = JDT 2459680.5
T 2022 Apr. 25.54709 TT                                 MPCW
q   0.5571806            (2000.0)            P               Q
n   0.18478014     Peri.  327.90889     +0.56328381     -0.82282410
a   3.0528058      Node    87.70313     +0.77311929     +0.49269923
e   0.8174857      Incl.    4.32261     +0.29154400     +0.28321013
P   5.33
From 1163 observations 2016 Nov. 6-2017 Mar. 8, mean residual 0".7.
     Nongravitational parameters A1 = -1.29, A2 = -0.6735.

・ 星図

・ 光度変化

        m1 = 14.2 + 5 logΔ + 23.0 log r  [ ,0]  (              〜2022年 4月25日)
        m1 = 12.0 + 5 logΔ + 15.0 log r  [0, ]  (2022年 4月25日〜              )

---------------------------------------------------------------------

軌道要素はM.P.E.C. 2017-E59に掲載されたものです。
星図はステラナビゲータ Ver.10 (アストロアーツ) で作成したものです。
光度グラフはComet for Windowsで作成したものです。

---------------------------------------------------------------------

Copyright(C) Seiichi Yoshida (comet@aerith.net). All rights reserved.